Weather Service Report


441 
ASUS42 KTBW 191310
RWRFL 
FLORIDA REGIONAL WEATHER ROUNDUP
NATIONAL WEATHER SERVICE TAMPA BAY RUSKIN FL
800 AM EST FRI DEC 19 2014

NOTE: "FAIR" INDICATES FEW OR NO CLOUDS BELOW 12,000 FEET WITH NO
SIGNIFICANT WEATHER AND/OR OBSTRUCTIONS TO VISIBILITY.


FLZ001>010-012>015-112-114-115-191400-
PANHANDLE FLORIDA
  
CITY           SKY/WX    TMP DP  RH WIND       PRES   REMARKS
PENSACOLA      CLOUDY    53  38  56 NE6       30.14R                  
PENSACOLA NAS  LGT RAIN  52  39  61 NE10      30.13R                  
MILTON NAS     CLOUDY    51  37  58 N5        30.13S                  
CRESTVIEW      CLOUDY    50  38  63 CALM      30.15R                  
DUKE FIELD     FAIR      51  38  62 NE3       30.12S                  
VALPARAISO     MOCLDY    53  37  54 E6        30.11F                  
MARY ESTHER    CLOUDY    53  34  47 NE3       30.11F                  
TRI COUNTY     PTSUNNY   49  41  74 N3        30.16R                  
PANAMA CITY    CLOUDY    49  40  71 N5        30.13R                  
TYNDALL AFB    PTCLDY    49  39  67 E7        30.14S                  
APALACHICOLA   MOCLDY    51  40  65 NE8       30.14R                  

STATION/POSITION SKY/WX   TEMP    WIND        PRES    WAVE   SWELL
                          AIR SEA DIR/SP/G            HT/PER HT/PER
                          (F)     (DEG/KT/KT) (MB)    (FT/S) (FT/S)
30.1N   87.6W              59 67   60/ 16/ 17 1019.2R   2/ 4
29.2N   88.2W              69 75   90/ 16/ 21 1018.1R   2/ 4
28.7N   86.0W              67 76   70/ 10/ 14 1019.6R   1/ 7
PANAMA CITY BEAC           52 61   60/  5/  9 1020.1S
CAPE SAN BLAS    NOT AVBL
TOWER C                    59      40/ 13/ 14 1020.4R
28.5N   84.5W              65 71   70/  8/ 10 1020.0R   1/ 3

$$
FLZ011-016>038-118-127-128-134-139-239-191400-
NORTH FLORIDA
  
CITY           SKY/WX    TMP DP  RH WIND       PRES   REMARKS
MARIANNA       CLOUDY    49  41  74 E3        30.15S                  
TALLAHASSEE    MOCLDY    48  38  68 CALM      30.15R                  
PERRY          MOCLDY    44  43  97 CALM      30.15R                  
CROSS CITY       N/A     46  44  93 CALM      30.15R                  
LAKE CITY      FAIR      45  41  87 NE3       30.13S                  
GAINESVILLE    CLOUDY    47  45  93 CALM      30.14R                  
MAYPORT NAS    MOCLDY    51  43  74 CALM      30.14R                  
JACKSONVILLE   MOCLDY    44  43  96 CALM      30.14R                  
JAX NAS        MOCLDY    54  41  61 N7        30.15R                  
JAX CRAIG      PTCLDY    47  42  83 CALM      30.14R                  
JAX CECIL      CLEAR     39  39 100 CALM      30.15R                  
FERNANDINA BEA FAIR      50  45  81 CALM      30.13R                  
ST AUGUSTINE   MOCLDY    48  44  86 CALM      30.15R                  

STATION/POSITION SKY/WX   TEMP    WIND        PRES    WAVE   SWELL
                          AIR SEA DIR/SP/G            HT/PER HT/PER
                          (F)     (DEG/KT/KT) (MB)    (FT/S) (FT/S)
SHELL POINT                50      20/  4/  5   N/A
KEATON BEACH               48      40/  4/  6 1020.9R
CEDAR KEY                  52     350/  4/  5 1020.7R
FERNANDINA                 52 59  340/  3/  4 1019.8R
30.7N   81.3W                 60                N/A     1/10
MAYPORT                    51 62  330/  2/  3   N/A
31.4N   80.9W              57 57  330/  6/  8 1020.0R   1
ST AUGUSTINE               50     320/  4/  5 1021.0R

$$
FLZ040-043>046-052-053-057-058-063-144-191400-
INTERIOR CENTRAL FLORIDA
  
CITY           SKY/WX    TMP DP  RH WIND       PRES   REMARKS
OCALA          CLEAR     46  43  87 CALM      30.14R                  
THE VILLAGES     N/A     50  48  93 CALM      30.04R FOG              
LEESBURG       MOCLDY    50  48  93 CALM      30.13R                  
SANFORD        MOCLDY    52  49  89 NW3       30.13R                  
ORLANDO EXEC   PTCLDY    55  51  86 CALM      30.13R                  
ORLANDO INTL   MOCLDY    54  50  86 N3        30.14R                  
KISSIMMEE      CLEAR     54  54 100 CALM      30.14R                  
WINTER HAVEN   CLEAR     53  49  86 CALM      30.14R                  
LAKELAND       PTCLDY    48  46  93 CALM      30.13R                  
BARTOW         PTCLDY    46  46 100 CALM      30.14R                  
OKEECHOBEE     PTCLDY    45  45 100 CALM      30.11S FOG              

$$
FLZ041-047-054-059-064-141-147-191400-
EAST CENTRAL FLORIDA
  
CITY           SKY/WX    TMP DP  RH WIND       PRES   REMARKS
ORMOND BEACH   CLEAR     48  46  93 CALM      30.14R                  
DAYTONA BEACH  CLOUDY    52  48  86 CALM      30.13R                  
DELAND         CLOUDY   N/A N/A N/A CALM      30.13S                  
NEW SMYRNA BEA CLEAR     52  48  87 SW6       30.14R                  
JFK SPACE CTR  CLOUDY    54  51  89 NW3       30.12R                  
TITUSVILLE     PTCLDY    48  48 100 VRB5      30.12R                  
CAPE CANAVERAL PTCLDY    55  51  87 NW6       30.11R                  
PATRICK AFB    CLEAR     57  53  84 NW12      30.12R                  
MELBOURNE      PTCLDY    51  49  92 NW6       30.11R                  
VERO BEACH     PTCLDY    53  49  86 NW3       30.11R                  
FT PIERCE      PTCLDY    53  51  93 W3        30.10S                  
STUART         PTCLDY    55  50  82 CALM      30.11R                  

STATION/POSITION SKY/WX   TEMP    WIND        PRES    WAVE   SWELL
                          AIR SEA DIR/SP/G            HT/PER HT/PER
                          (F)     (DEG/KT/KT) (MB)    (FT/S) (FT/S)
28.5N   80.2W              67 76  300/  4/  8 1019.2R
28.9N   78.5W              69 76  300/  6/  8 1019.4R   2/10   2/10
TRIDENT PIER               58 65  310/  5/  6 1019.5R
28.4N   80.5W                 66                N/A     1/10
27.6N   80.2W                 76                N/A     1/11

$$
FLZ050-056-061-142-242-148-248-149-249-151-251-155-255-
160-260-191400-
WEST CENTRAL FLORIDA
  
CITY           SKY/WX    TMP DP  RH WIND       PRES   REMARKS
CRYSTAL RIVER  FAIR      48  46  93 CALM      30.15R                  
INVERNESS      FAIR      46  45  93 CALM      30.15R                  
BROOKSVILLE    PTCLDY    44  42  93 CALM      30.14R                  
ZEPHYRHILLS    FAIR      43  43 100 CALM      30.15R                  
CLEARWATER     PTCLDY    56  48  74 NE7       30.14R                  
TAMPA INTL     PTCLDY    52  47  83 N7        30.14R                  
TAMPA EXEC     CLEAR     50  46  87 CALM      30.14R FOG              
PLANT CITY     CLEAR     52 N/A N/A CALM      30.15R                  
MACDILL AFB    CLEAR     49  49  99 NE3       30.13R                  
PETER O KNIGHT CLEAR     55  50  82 NE7       30.13R                  
ST PETERSBURG  PTCLDY    57  51  80 NE6       30.12R                  
SARASOTA       CLEAR     50  49  96 NE5       30.12R                  
VENICE         FAIR      50  48  93 NE6       30.13R                  

STATION/POSITION SKY/WX   TEMP    WIND        PRES    WAVE   SWELL
                          AIR SEA DIR/SP/G            HT/PER HT/PER
                          (F)     (DEG/KT/KT) (MB)    (FT/S) (FT/S)
CEDAR KEY                  52     350/  4/  5 1020.7R
28.5N   84.5W              65 71   70/  8/ 10 1020.0R   1/ 3
27.3N   84.3W                 76                N/A     1/ 7
CLEARWATER BEACH           56 63   50/  5/  8 1019.9S
MIDDLE TAMPA BAY           58      80/  9/ 10 1020.0F
VENICE                     53 64   50/  8/  9 1019.6R

$$
FLZ066-069-070-075>078-162-262-165-265-191400-
SOUTHWEST FLORIDA AND KEYS
  
CITY           SKY/WX    TMP DP  RH WIND       PRES   REMARKS
PUNTA GORDA    CLEAR     46  46 100 NE3       30.13R FOG              
FT MYERS       CLEAR     51  50  96 CALM      30.10R                  
SOUTHWEST INTL CLEAR     51  49  92 CALM      30.11R                  
NAPLES         CLEAR     53  50  89 E3        30.10R                  
MARCO ISLAND   PTSUNNY   54  48  82 NE3       30.10R                  
MARATHON       SUNNY     65  59  81 NE12      30.08R                  
KEY WEST NAS   SUNNY     67  63  87 NE8       30.09R                  
KEY WEST INTL  SUNNY     67  63  87 N9        30.09R                  

STATION/POSITION SKY/WX   TEMP    WIND        PRES    WAVE   SWELL
                          AIR SEA DIR/SP/G            HT/PER HT/PER
                          (F)     (DEG/KT/KT) (MB)    (FT/S) (FT/S)
VENICE                     53 64   50/  8/  9 1019.6R
NAPLES                     55 71   70/  4/  6 1019.6R
26.0N   85.6W              72 76   90/ 10/ 12 1018.4R   1/ 7   2/ 7
DRY TORTUGAS               68      30/ 12/ 13 1018.1R
NW FL BAY                  64      50/ 11/ 13 1018.7R
SAND KEY                   68      30/ 15/ 17 1018.5R
SOMBRERO KEY               67      30/ 13/ 14 1019.2R
LONG KEY                   66 68   30/ 13/ 14 1019.2R
MOLASSES REEF              68 76   30/ 12/ 13 1018.5R

$$
FLZ067-068-071>074-168-172>174-191400-
SOUTHEAST FLORIDA 
  
CITY           SKY/WX    TMP DP  RH WIND       PRES   REMARKS
W PALM BEACH   MOSUNNY   59  52  77 CALM      30.09R                  
FT LAUDER-EXEC MOSUNNY   60  53  77 CALM      30.09R                  
FT LAUDERDALE  PTSUNNY   60  55  83 N5        30.09R                  
POMPANO BEACH  SUNNY     60  54  80 CALM      30.09R                  
PEMBROKE PINES SUNNY     59  55  87 CALM      30.11R                  
OPA LOCKA      SUNNY     61  55  81 CALM      30.10R                  
MIAMI          MOSUNNY   65  52  62 N5        30.10R                  
WEST KENDALL   SUNNY     58  56  93 CALM      30.10R                  
HOMESTEAD      SUNNY     60  55  84 N3        30.09R                  

STATION/POSITION SKY/WX   TEMP    WIND        PRES    WAVE   SWELL
                          AIR SEA DIR/SP/G            HT/PER HT/PER
                          (F)     (DEG/KT/KT) (MB)    (FT/S) (FT/S)
PORT EVERGLADES            65     340/  5/  8 1018.8
VIRGINIA KEY               66 73  350/  5/  7 1019.4R
LAKE WORTH                 62 75  300/  4/  5 1018.6R

Return to Home page


Western Regional Climate Center, wrcc@dri.edu